DELTA 1 DEB, 7181

Orbit data source: Space-Track

DELTA 1 DEB, 7181 is space debris in SSO originally from a launch on Tue, 06 Nov 1973 UTC launched from the Air Force Western Test Range (AFWTR). Debris objects in space refer to the collection of defunct objects orbiting the Earth. Examples of debris include non-operational satellites, rocket bodies, and fragments generated from explosions, collisions, or faulty payload assembly.

Loading next visibility...
Identifier
7181, 1973-086ES
Orbit
SSO
Country
Flag of USUS
Related business
Manufacturer
Unknown
Mission
Spacecraft
Bus & Motor
Unknown
Mass
Unknown
Launch date (UTC)
1973-11-06 (52 years ago)
Launch vehicle
Unknown
Launch site
Air Force Western Test Range (AFWTR)
Object type
Payload
Rocket body
Debris
Shape & HBR
Unknown shape, 0.1 m
Radar Cross Section
Small (<0.1 m²)

Expand to show TLE details & history
Last TLE update: 18 hours ago

TLE from 18 hours ago
0 DELTA 1 DEB
1 07181U 73086ES  26033.27727649  .00000170  00000-0  12839-2 0  9992
2 07181 102.3690 165.4360 0101159 355.5906  32.9194 12.57155425393465
Epoch: 2026-02-02T06:39Z
TLE epoch observation values (Epoch: 2026-02-02T06:39:16.688Z)
Latitude
28.45199°
Longitude
-73.64895°
Altitude
1,371.795 km
Speed
7.206 km/s
True Right ascension
10h 34m 34s
True Declination
28° 19' 11"
Sunlit
Object was in full shadow at epoch
Visualization orbit readout
Latitude
Unknown
Longitude
Unknown
Altitude
Unknown
Speed
Unknown
Apparent Right ascension
Unknown
Apparent Declination
Unknown
Sunlit
N/A
Visualization observer readout
Local Sidereal Time
02:09:35
Azimuth
Unknown
Elevation
Unknown
Doppler factor
Unknown
Orbital elements
Apogee altitude
1,511.292 km
Perigee altitude
1,353.273 km
Semi-major axis
7,810.419 km
Eccentricity
0.01012
Inclination
102.369°
RAAN
165.436°
Arg. of periapsis
355.5906°
True anomaly
33.55612°
Mean anomaly
32.9194°
Eccentric anomaly
33.23708°
Mean motion
3.14436 °/min
Orbital period
114.49 mins
BSTAR
0.0012839
Loading maneuver chart data...
Computing Atmospheric mass density...
Loading historical data...
Loading historical data...
Loading historical data...
Loading historical data...
Loading historical data...
Loading historical data...
Loading historical data...

Documentation

Showing up to 5 results
|